sat.trackr.live / text

‹ back to catalog

STARLINK-4738

NORAD 53819 · 2022-114B

PAYLOAD ACTIVE UNKNOWN

§ Identity

Operator
Country
US
Launch date
2022-09-19
Launch site
AFETR
Launch vehicle
Mass (kg)
RCS (m²)

Purposes: comms

External: N2YO · Heavens-Above · Gunter

§ Orbital elements

Epoch: 2026-05-25T04:47:09.673728Z

Period
95.44 min
Inclination
53.2149°
Eccentricity
0.0001015
Mean motion
15.08846732 rev/d
Perigee alt
539.0 km
Apogee alt
540.4 km
Semi-major
6,917.9 km
B*
4.1482e-5
RAAN
320.5267°
Arg perigee
112.9232°
Mean anomaly
247.1868°
Rev number
20,438

§ Raw data

STARLINK-47381 53819U 22114B   26145.19941752  .00000373  00000+0  41482-4 0  99972 53819  53.2149 320.5267 0001015 112.9232 247.1868 15.08846732204381

JSON: /api/v1/satellites/53819 · /tle

For live sub-satellite position, see the globe view (requires WebGL).

§ Visibility from observer

Set your observer location to see the next 7 days of passes ≥ 10°. The values pass through the URL so the page stays shareable.

No JS? Fill the form by hand. The geolocation button needs JavaScript.